Tracking 19795 objects as of 18-Jul-2019
HD Live streaming from Space Station
objects crossing your sky now

CZ-4 DEB

Track CZ-4 DEB now!
10-day predictions


NORAD ID: 26143
Int'l Code: 1999-057AF
Perigee: 734.9 km
Apogee: 1,458.6 km
Inclination: 99.0 °
Period: 107.0 minutes
Semi major axis: 7467 km
RCS: 0.0397 m2 (small)
Launch date: October 14, 1999
Source: People's Republic of China (PRC)
Launch site: Taiyaun Space Center, China (TSC)

Note: This is SATELLITE DEBRIS
aabbcc
Your satellite tracking list
Your tracking list is empty




NASA's NSSDC Master Catalog

Two Line Element Set (TLE):
1 26143U 99057AF  19198.75611163 +.00000021 +00000-0 +46636-4 0  9996
2 26143 098.9562 012.2463 0484590 044.5341 066.9268 13.45299105947855
Source of the keplerian elements: AFSPC